Location: Unspecified
(41.5516°N, 88.1098°W)
Time: 03:30:37
(UTC-05:00)

Cosmos 2058 - Visible Passes

Search period start: 26 October 2014 00:00
Search period end: 04 November 2014 23:00
Orbit: 571 x 592 km, 82.5° (Epoch: 25 October)

Date Brightness Start Highest point End Pass type
(mag) Time Alt. Az. Time Alt. Az. Time Alt. Az.
26 Oct 5.2 04:25:18 21° ESE 04:26:03 23° E 04:29:21 10° NE visible
26 Oct 3.8 06:01:48 24° WSW 06:02:59 27° WNW 06:06:37 10° NNW visible
27 Oct 4.9 04:32:35 27° ENE 04:32:35 27° ENE 04:35:15 10° NNE visible
27 Oct 4.3 06:09:03 20° WNW 06:09:03 20° WNW 06:11:48 10° NNW visible
28 Oct 5.1 04:39:23 22° NNE 04:39:23 22° NNE 04:41:01 10° NNE visible
28 Oct 4.9 06:15:50 13° NW 06:15:50 13° NW 06:16:44 10° NW visible
29 Oct 5.4 04:45:55 15° NNE 04:45:55 15° NNE 04:46:40 10° NNE visible
